Regional Weather Roundup
Issued by NWS

Home | Current Version | Previous Version | Graphics & Text | Print | Product List | Glossary On
Versions: 1 2 3 4 5 6 7 8 9 10 11 12 13 14 15 16 17 18 19 20 21 22 23 24 25 26 27 28 29 30 31 32 33 34 35 36 37 38 39 40 41 42 43 44 45 46 47 48 49 50
000
ASUS43 KLMK 252302
RWRKY
KENTUCKY REGIONAL WEATHER ROUNDUP
NATIONAL WEATHER SERVICE LOUISVILLE KY
600 PM EST THU DEC 25 2014

NOTE "FAIR" INDICATES FEW OR NO CLOUDS BELOW 12,000 FEET
WITH NO SIGNIFICANT WEATHER AND/OR OBSTRUCTIONS TO VISIBILITY.

KYZ001>023-026-027-061>063-070>075-260000-
WESTERN AND SOUTH CENTRAL KENTUCKY

CITY           SKY/WX    TMP DP  RH WIND       PRES   REMARKS
PADUCAH        CLEAR     46  33  60 S7        30.10F
HENDERSON      CLEAR     43  30  61 S7        30.12F
OWENSBORO      CLEAR     44  36  73 S9        30.15S
HOPKINSVILLE   CLEAR     47  33  59 S6        30.16S
BOWLING GREEN  CLEAR     43  33  68 S7        30.21R
GLASGOW        NOT AVBL
$$

KYZ024-025-028>034-038-045-046-053-260000-
NORTH CENTRAL KENTUCKY

CITY           SKY/WX    TMP DP  RH WIND       PRES   REMARKS
LOUISVILLE/SDF PTCLDY    43  33  68 S8        30.18R
LOUISVILLE/LOU CLEAR     42  32  67 S3        30.19R
FORT KNOX      CLEAR     39  32  75 SE7       30.17R WCI  34
$$

KYZ035>037-039>044-047>052-055>060-089>105-260000-
NORTHEAST KENTUCKY

CITY           SKY/WX    TMP DP  RH WIND       PRES   REMARKS
LEXINGTON      PTCLDY    37  30  75 SW6       30.20R WCI  32
COVINGTON      MOCLDY    38  29  70 SW5       30.17R WCI  34
FRANKFORT      CLEAR     38  30  73 S6        30.19R WCI  33
$$

KYZ054-064>069-076>088-106>120-260000-
SOUTHEAST KENTUCKY

CITY           SKY/WX    TMP DP  RH WIND       PRES   REMARKS
JACKSON        CLEAR     37  30  75 CALM      30.19S
LONDON         CLEAR     42  30  62 CALM      30.19S
SOMERSET       NOT AVBL
MIDDLESBORO    NOT AVBL
MONTICELLO     CLEAR     37  32  82 CALM      30.24R
$$




USA.gov is the U.S. government's official web portal to all federal, state and local government web resources and services.